| time (UTC) | temp F | wind direction | speed MPH | gust MPH | rain 1hr in | rain 24hr in | rain mn in | humidity % | barometer mb |
| 20260902085557 | 58 | 157 | 3.0 | 9.0 | 0.00 | 0.00 | 0.00 | 77 | 1018.3 |
| 20260902085056 | 59 | 143 | 2.0 | 8.0 | 0.00 | 0.00 | 0.00 | 77 | 1018.3 |
| 20260902084556 | 59 | 153 | 1.0 | 7.0 | 0.00 | 0.00 | 0.00 | 76 | 1018.3 |
| 20260902084056 | 59 | 167 | 2.0 | 9.0 | 0.00 | 0.00 | 0.00 | 76 | 1018.3 |
| 20260902083555 | 59 | 178 | 2.0 | 9.0 | 0.00 | 0.00 | 0.00 | 76 | 1018.2 |
| 20260902083055 | 59 | 136 | 0.0 | 6.0 | 0.00 | 0.00 | 0.00 | 76 | 1018.2 |
| 20260902082555 | 59 | 156 | 0.0 | 6.0 | 0.00 | 0.00 | 0.00 | 75 | 1018.3 |
| 20260902082055 | 59 | 169 | 0.0 | 6.0 | 0.00 | 0.00 | 0.00 | 75 | 1018.3 |
| 20260902081554 | 59 | 156 | 0.0 | 7.0 | 0.00 | 0.00 | 0.00 | 75 | 1018.3 |
| 20260902081057 | 59 | 165 | 1.0 | 7.0 | 0.00 | 0.00 | 0.00 | 75 | 1018.2 |
| 20260902080553 | 59 | 151 | 3.0 | 7.0 | 0.00 | 0.00 | 0.00 | 75 | 1018.2 |
| 20260902080056 | 59 | 155 | 3.0 | 8.0 | 0.00 | 0.00 | 0.00 | 75 | 1018.2 |
| 20260902075551 | 59 | 159 | 4.0 | 10.0 | 0.00 | 0.00 | 0.00 | 74 | 1018.1 |
| 20260902075053 | 59 | 148 | 5.0 | 10.0 | 0.00 | 0.00 | 0.00 | 75 | 1018.1 |
| 20260902074554 | 59 | 157 | 6.0 | 10.0 | 0.00 | 0.00 | 0.00 | 74 | 1017.9 |
| 20260902074048 | 59 | 151 | 6.0 | 10.0 | 0.00 | 0.00 | 0.00 | 74 | 1017.9 |
| 20260902073548 | 59 | 143 | 4.0 | 7.0 | 0.00 | 0.00 | 0.00 | 74 | 1017.9 |
| 20260902073052 | 59 | 151 | 1.0 | 9.0 | 0.00 | 0.00 | 0.00 | 74 | 1017.9 |
| 20260902072547 | 59 | 168 | 3.0 | 10.0 | 0.00 | 0.00 | 0.00 | 74 | 1017.8 |
| 20260902072047 | 60 | 154 | 0.0 | 7.0 | 0.00 | 0.00 | 0.00 | 74 | 1017.7 |
| 20260902071547 | 60 | 117 | 3.0 | 8.0 | 0.00 | 0.00 | 0.00 | 74 | 1017.7 |
| 20260902071046 | 60 | 149 | 2.0 | 10.0 | 0.00 | 0.00 | 0.00 | 74 | 1017.7 |
| 20260902070546 | 60 | 159 | 5.0 | 10.0 | 0.00 | 0.00 | 0.00 | 74 | 1017.7 |
| 20260902070044 | 60 | 154 | 5.0 | 9.0 | 0.00 | 0.00 | 0.00 | 73 | 1017.7 |
| 20260902065544 | 60 | 164 | 5.0 | 10.0 | 0.00 | 0.00 | 0.00 | 73 | 1017.9 |
| 20260902065045 | 60 | 155 | 6.0 | 9.0 | 0.00 | 0.00 | 0.00 | 73 | 1017.9 |
| 20260902064546 | 60 | 155 | 3.0 | 11.0 | 0.00 | 0.00 | 0.00 | 72 | 1017.8 |
| 20260902064043 | 60 | 150 | 6.0 | 11.0 | 0.00 | 0.00 | 0.00 | 72 | 1017.9 |
| 20260902063544 | 61 | 157 | 5.0 | 11.0 | 0.00 | 0.00 | 0.00 | 72 | 1018.0 |
| 20260902063048 | 61 | 150 | 5.0 | 12.0 | 0.00 | 0.00 | 0.00 | 72 | 1018.0 |
| 20260902062543 | 61 | 144 | 5.0 | 13.0 | 0.00 | 0.00 | 0.00 | 72 | 1017.8 |
| 20260902062042 | 61 | 152 | 4.0 | 13.0 | 0.00 | 0.00 | 0.00 | 72 | 1018.0 |
| 20260902061543 | 61 | 155 | 6.0 | 11.0 | 0.00 | 0.00 | 0.00 | 72 | 1018.1 |
| 20260902061044 | 61 | 161 | 6.0 | 10.0 | 0.00 | 0.00 | 0.00 | 72 | 1018.1 |
| 20260902060542 | 61 | 146 | 5.0 | 10.0 | 0.00 | 0.00 | 0.00 | 71 | 1018.1 |
| 20260902060042 | 61 | 153 | 3.0 | 8.0 | 0.00 | 0.00 | 0.00 | 71 | 1018.1 |
| 20260902055542 | 61 | 152 | 3.0 | 8.0 | 0.00 | 0.00 | 0.00 | 71 | 1018.1 |
| 20260902055042 | 61 | 157 | 1.0 | 7.0 | 0.00 | 0.00 | 0.00 | 71 | 1018.1 |
| 20260902054543 | 62 | 149 | 2.0 | 9.0 | 0.00 | 0.00 | 0.00 | 70 | 1018.1 |
| 20260902054040 | 62 | 157 | 3.0 | 11.0 | 0.00 | 0.00 | 0.00 | 70 | 1018.1 |
| 20260902053542 | 62 | 154 | 7.0 | 11.0 | 0.00 | 0.00 | 0.00 | 70 | 1017.9 |
| 20260902053040 | 62 | 151 | 5.0 | 10.0 | 0.00 | 0.00 | 0.00 | 70 | 1017.8 |
| 20260902052540 | 62 | 180 | 3.0 | 8.0 | 0.00 | 0.00 | 0.00 | 69 | 1017.8 |
| 20260902052039 | 62 | 146 | 1.0 | 8.0 | 0.00 | 0.00 | 0.00 | 69 | 1017.8 |
| 20260902051540 | 62 | 157 | 4.0 | 8.0 | 0.00 | 0.00 | 0.00 | 68 | 1017.8 |
| 20260902051040 | 62 | 150 | 2.0 | 8.0 | 0.00 | 0.00 | 0.00 | 68 | 1017.9 |
| 20260902050540 | 62 | 164 | 3.0 | 7.0 | 0.00 | 0.00 | 0.00 | 68 | 1017.9 |
| 20260902050040 | 63 | 162 | 4.0 | 7.0 | 0.00 | 0.00 | 0.00 | 67 | 1017.9 |
| 20260902045542 | 63 | 155 | 5.0 | 9.0 | 0.00 | 0.00 | 0.00 | 67 | 1017.9 |
| 20260902045038 | 63 | 148 | 5.0 | 9.0 | 0.00 | 0.00 | 0.00 | 67 | 1017.9 |
| 20260902044539 | 63 | 156 | 5.0 | 7.0 | 0.00 | 0.00 | 0.00 | 66 | 1018.0 |
| 20260902044039 | 63 | 165 | 5.0 | 7.0 | 0.00 | 0.00 | 0.00 | 65 | 1017.9 |
| 20260902043539 | 63 | 170 | 2.0 | 6.0 | 0.00 | 0.00 | 0.00 | 65 | 1017.7 |
| 20260902043045 | 64 | 183 | 2.0 | 7.0 | 0.00 | 0.00 | 0.00 | 64 | 1017.6 |
| 20260902042538 | 64 | 180 | 3.0 | 9.0 | 0.00 | 0.00 | 0.00 | 64 | 1017.6 |
| 20260902042038 | 64 | 169 | 5.0 | 8.0 | 0.00 | 0.00 | 0.00 | 64 | 1017.5 |
| 20260902041540 | 64 | 190 | 5.0 | 9.0 | 0.00 | 0.00 | 0.00 | 63 | 1017.5 |
| 20260902041037 | 64 | 173 | 5.0 | 8.0 | 0.00 | 0.00 | 0.00 | 63 | 1017.5 |
| 20260902040538 | 64 | 159 | 4.0 | 8.0 | 0.00 | 0.00 | 0.00 | 62 | 1017.3 |
| 20260902040038 | 64 | 168 | 5.0 | 8.0 | 0.00 | 0.00 | 0.00 | 62 | 1017.2 |
| 20260902035537 | 65 | 150 | 2.0 | 6.0 | 0.00 | 0.00 | 0.00 | 61 | 1017.2 |
| 20260902035037 | 65 | 180 | 3.0 | 8.0 | 0.00 | 0.00 | 0.00 | 60 | 1017.1 |
| 20260902034538 | 65 | 163 | 3.0 | 8.0 | 0.00 | 0.00 | 0.00 | 60 | 1016.9 |
| 20260902034036 | 65 | 184 | 1.0 | 6.0 | 0.00 | 0.00 | 0.00 | 59 | 1016.8 |
| 20260902033536 | 66 | 185 | 2.0 | 7.0 | 0.00 | 0.00 | 0.00 | 59 | 1016.8 |
| 20260902033043 | 66 | 173 | 4.0 | 7.0 | 0.00 | 0.00 | 0.00 | 58 | 1016.7 |
| 20260902032539 | 66 | 144 | 3.0 | 7.0 | 0.00 | 0.00 | 0.00 | 58 | 1016.7 |
| 20260902032036 | 66 | 360 | 0.0 | 6.0 | 0.00 | 0.00 | 0.00 | 58 | 1016.5 |
| 20260902031536 | 66 | 360 | 3.0 | 8.0 | 0.00 | 0.00 | 0.00 | 57 | 1016.5 |
| 20260902031036 | 67 | 360 | 5.0 | 8.0 | 0.00 | 0.00 | 0.00 | 57 | 1016.4 |
| 20260902030535 | 67 | 360 | 2.0 | 5.0 | 0.00 | 0.00 | 0.00 | 57 | 1016.3 |
| 20260902030044 | 67 | 360 | 3.0 | 8.0 | 0.00 | 0.00 | 0.00 | 57 | 1016.2 |
| 20260902025536 | 67 | 360 | 5.0 | 8.0 | 0.00 | 0.00 | 0.00 | 56 | 1016.1 |
| 20260902025035 | 67 | 360 | 6.0 | 9.0 | 0.00 | 0.00 | 0.00 | 56 | 1016.1 |
| 20260902024534 | 68 | 216 | 5.0 | 9.0 | 0.00 | 0.00 | 0.00 | 55 | 1015.9 |
| 20260902024034 | 68 | 360 | 5.0 | 11.0 | 0.00 | 0.00 | 0.00 | 55 | 1015.9 |
| 20260902023534 | 68 | 219 | 7.0 | 11.0 | 0.00 | 0.00 | 0.00 | 55 | 1015.9 |
| 20260902023042 | 68 | 197 | 5.0 | 11.0 | 0.00 | 0.00 | 0.00 | 55 | 1015.9 |
| 20260902022534 | 68 | 230 | 5.0 | 11.0 | 0.00 | 0.00 | 0.00 | 55 | 1015.8 |
| 20260902022033 | 68 | 254 | 5.0 | 14.0 | 0.00 | 0.00 | 0.00 | 54 | 1015.8 |
| 20260902021542 | 69 | 206 | 8.0 | 14.0 | 0.00 | 0.00 | 0.00 | 54 | 1015.7 |
| 20260902021033 | 69 | 216 | 7.0 | 14.0 | 0.00 | 0.00 | 0.00 | 53 | 1015.7 |
| 20260902020534 | 69 | 227 | 8.0 | 12.0 | 0.00 | 0.00 | 0.00 | 52 | 1015.7 |
| 20260902020035 | 69 | 360 | 6.0 | 14.0 | 0.00 | 0.00 | 0.00 | 51 | 1015.7 |
| 20260902015533 | 70 | 221 | 9.0 | 14.0 | 0.00 | 0.00 | 0.00 | 51 | 1015.5 |
| 20260902015036 | 70 | 360 | 6.0 | 13.0 | 0.00 | 0.00 | 0.00 | 50 | 1015.5 |
| 20260902014532 | 71 | 360 | 7.0 | 13.0 | 0.00 | 0.00 | 0.00 | 49 | 1015.4 |
| 20260902014032 | 71 | 220 | 6.0 | 13.0 | 0.00 | 0.00 | 0.00 | 49 | 1015.4 |
| 20260902013536 | 71 | 208 | 9.0 | 13.0 | 0.00 | 0.00 | 0.00 | 48 | 1015.4 |
| 20260902013032 | 72 | 213 | 8.0 | 14.0 | 0.00 | 0.00 | 0.00 | 48 | 1015.4 |
| 20260902012531 | 72 | 217 | 8.0 | 14.0 | 0.00 | 0.00 | 0.00 | 47 | 1015.4 |
| 20260902012031 | 72 | 218 | 7.0 | 13.0 | 0.00 | 0.00 | 0.00 | 47 | 1015.4 |
| 20260902011532 | 72 | 233 | 8.0 | 12.0 | 0.00 | 0.00 | 0.00 | 47 | 1015.3 |
| 20260902011032 | 73 | 224 | 7.0 | 15.0 | 0.00 | 0.00 | 0.00 | 47 | 1015.4 |
| 20260902010532 | 72 | 182 | 8.0 | 15.0 | 0.00 | 0.00 | 0.00 | 46 | 1015.4 |
| 20260902010031 | 73 | 200 | 8.0 | 15.0 | 0.00 | 0.00 | 0.00 | 45 | 1015.5 |
| 20260902005531 | 73 | 213 | 7.0 | 12.0 | 0.00 | 0.00 | 0.00 | 45 | 1015.4 |
| 20260902005031 | 72 | 201 | 8.0 | 13.0 | 0.00 | 0.00 | 0.00 | 45 | 1015.4 |
| 20260902004531 | 73 | 194 | 9.0 | 14.0 | 0.00 | 0.00 | 0.00 | 45 | 1015.4 |
| 20260902004030 | 73 | 180 | 8.0 | 14.0 | 0.00 | 0.00 | 0.00 | 45 | 1015.4 |
| 20260902003530 | 73 | 211 | 11.0 | 15.0 | 0.00 | 0.00 | 0.00 | 44 | 1015.5 |
| 20260902003030 | 73 | 213 | 9.0 | 15.0 | 0.00 | 0.00 | 0.00 | 44 | 1015.5 |
| 20260902002532 | 73 | 225 | 9.0 | 13.0 | 0.00 | 0.00 | 0.00 | 44 | 1015.4 |
| 20260902002035 | 74 | 192 | 6.0 | 14.0 | 0.00 | 0.00 | 0.00 | 46 | 1015.5 |
| 20260902001529 | 74 | 183 | 7.0 | 16.0 | 0.00 | 0.00 | 0.00 | 46 | 1015.5 |
| 20260902001031 | 73 | 174 | 9.0 | 18.0 | 0.00 | 0.00 | 0.00 | 47 | 1015.6 |
| 20260902000528 | 74 | 207 | 11.0 | 18.0 | 0.00 | 0.00 | 0.00 | 46 | 1015.6 |
| 20260902000029 | 74 | 213 | 7.0 | 14.0 | 0.00 | 0.00 | 0.00 | 46 | 1015.6 |
| 20260901235528 | 73 | 214 | 5.0 | 13.0 | 0.00 | 0.00 | 0.00 | 46 | 1015.6 |
| 20260901235027 | 74 | 210 | 9.0 | 14.0 | 0.00 | 0.00 | 0.00 | 46 | 1015.7 |
| 20260901234526 | 73 | 167 | 8.0 | 15.0 | 0.00 | 0.00 | 0.00 | 46 | 1015.6 |
| 20260901234027 | 73 | 205 | 10.0 | 16.0 | 0.00 | 0.00 | 0.00 | 47 | 1015.7 |
| 20260901233526 | 73 | 182 | 9.0 | 14.0 | 0.00 | 0.00 | 0.00 | 48 | 1015.6 |
| 20260901233025 | 73 | 213 | 8.0 | 16.0 | 0.00 | 0.00 | 0.00 | 49 | 1015.6 |
| 20260901232525 | 73 | 154 | 9.0 | 16.0 | 0.00 | 0.00 | 0.00 | 47 | 1015.7 |
| 20260901232024 | 73 | 218 | 9.0 | 15.0 | 0.00 | 0.00 | 0.00 | 48 | 1015.7 |
| 20260901231524 | 73 | 173 | 8.0 | 15.0 | 0.00 | 0.00 | 0.00 | 50 | 1015.8 |
| 20260901231024 | 72 | 272 | 8.0 | 13.0 | 0.00 | 0.00 | 0.00 | 51 | 1015.7 |
| 20260901230523 | 72 | 200 | 8.0 | 14.0 | 0.00 | 0.00 | 0.00 | 50 | 1015.8 |
| 20260901230033 | 72 | 224 | 8.0 | 15.0 | 0.00 | 0.00 | 0.00 | 51 | 1015.9 |
| 20260901225524 | 73 | 225 | 9.0 | 15.0 | 0.00 | 0.00 | 0.00 | 50 | 1016.0 |
| 20260901225021 | 73 | 214 | 9.0 | 18.0 | 0.00 | 0.00 | 0.00 | 49 | 1015.9 |
| 20260901224522 | 72 | 192 | 10.0 | 18.0 | 0.00 | 0.00 | 0.00 | 50 | 1016.0 |
| 20260901224026 | 73 | 180 | 7.0 | 12.0 | 0.00 | 0.00 | 0.00 | 50 | 1016.1 |
| 20260901223520 | 73 | 159 | 6.0 | 13.0 | 0.00 | 0.00 | 0.00 | 51 | 1016.2 |
| 20260901223020 | 72 | 236 | 7.0 | 14.0 | 0.00 | 0.00 | 0.00 | 52 | 1016.1 |
| 20260901222520 | 73 | 360 | 7.0 | 14.0 | 0.00 | 0.00 | 0.00 | 52 | 1016.2 |
| 20260901222021 | 72 | 360 | 0.0 | 12.0 | 0.00 | 0.00 | 0.00 | 53 | 1016.2 |
| 20260901221526 | 72 | 214 | 7.0 | 15.0 | 0.00 | 0.00 | 0.00 | 53 | 1016.4 |
| 20260901221020 | 72 | 360 | 11.0 | 15.0 | 0.00 | 0.00 | 0.00 | 52 | 1016.4 |
| 20260901220518 | 71 | 360 | 6.0 | 11.0 | 0.00 | 0.00 | 0.00 | 52 | 1016.4 |
| 20260901220043 | 71 | 360 | 6.0 | 13.0 | 0.00 | 0.00 | 0.00 | 54 | 1016.4 |
| 20260901215519 | 71 | 360 | 7.0 | 16.0 | 0.00 | 0.00 | 0.00 | 53 | 1016.4 |
| 20260901215021 | 71 | 186 | 10.0 | 18.0 | 0.00 | 0.00 | 0.00 | 52 | 1016.4 |
| 20260901214518 | 72 | 360 | 10.0 | 16.0 | 0.00 | 0.00 | 0.00 | 51 | 1016.4 |
| 20260901214018 | 73 | 360 | 9.0 | 20.0 | 0.00 | 0.00 | 0.00 | 52 | 1016.5 |
| 20260901213516 | 72 | 360 | 11.0 | 20.0 | 0.00 | 0.00 | 0.00 | 52 | 1016.4 |
| 20260901213037 | 71 | 360 | 10.0 | 18.0 | 0.00 | 0.00 | 0.00 | 54 | 1016.5 |
| 20260901212515 | 72 | 360 | 9.0 | 13.0 | 0.00 | 0.00 | 0.00 | 53 | 1016.5 |
| 20260901212014 | 71 | 208 | 4.0 | 14.0 | 0.00 | 0.00 | 0.00 | 55 | 1016.3 |
| 20260901211514 | 71 | 223 | 10.0 | 14.0 | 0.00 | 0.00 | 0.00 | 55 | 1016.5 |
| 20260901211012 | 71 | 360 | 6.0 | 14.0 | 0.00 | 0.00 | 0.00 | 56 | 1016.6 |
| 20260901210512 | 70 | 217 | 4.0 | 20.0 | 0.00 | 0.00 | 0.00 | 56 | 1016.8 |
| 20260901210011 | 70 | 180 | 9.0 | 20.0 | 0.00 | 0.00 | 0.00 | 56 | 1017.0 |
| 20260901205511 | 69 | 221 | 8.0 | 15.0 | 0.00 | 0.00 | 0.00 | 58 | 1016.8 |
| 20260901205012 | 69 | 221 | 7.0 | 12.0 | 0.00 | 0.00 | 0.00 | 56 | 1016.8 |
| 20260901204508 | 70 | 360 | 5.0 | 13.0 | 0.00 | 0.00 | 0.00 | 58 | 1017.0 |
| 20260901204008 | 69 | 360 | 8.0 | 16.0 | 0.00 | 0.00 | 0.00 | 57 | 1017.1 |
| 20260901203507 | 69 | 219 | 5.0 | 15.0 | 0.00 | 0.00 | 0.00 | 60 | 1017.2 |
| 20260901203024 | 68 | 235 | 7.0 | 15.0 | 0.00 | 0.00 | 0.00 | 59 | 1017.3 |
| 20260901202506 | 69 | 215 | 7.0 | 20.0 | 0.00 | 0.00 | 0.00 | 59 | 1017.2 |
| 20260901202005 | 69 | 191 | 9.0 | 20.0 | 0.00 | 0.00 | 0.00 | 60 | 1017.2 |
| 20260901201505 | 68 | 192 | 12.0 | 16.0 | 0.00 | 0.00 | 0.00 | 59 | 1017.3 |
| 20260901201005 | 68 | 217 | 7.0 | 14.0 | 0.00 | 0.00 | 0.00 | 60 | 1017.4 |
| 20260901200504 | 68 | 229 | 5.0 | 13.0 | 0.00 | 0.00 | 0.00 | 60 | 1017.4 |
| 20260901200004 | 68 | 180 | 5.0 | 14.0 | 0.00 | 0.00 | 0.00 | 61 | 1017.3 |
| 20260901195503 | 68 | 191 | 10.0 | 19.0 | 0.00 | 0.00 | 0.00 | 62 | 1017.4 |
| 20260901195003 | 68 | 198 | 9.0 | 19.0 | 0.00 | 0.00 | 0.00 | 61 | 1017.5 |
| 20260901194502 | 67 | 186 | 6.0 | 14.0 | 0.00 | 0.00 | 0.00 | 62 | 1017.5 |
| 20260901194001 | 67 | 222 | 6.0 | 19.0 | 0.00 | 0.00 | 0.00 | 61 | 1017.5 |
| 20260901193503 | 67 | 213 | 14.0 | 19.0 | 0.00 | 0.00 | 0.00 | 60 | 1017.6 |
| 20260901193001 | 67 | 198 | 7.0 | 16.0 | 0.00 | 0.00 | 0.00 | 62 | 1017.6 |
| 20260901192500 | 67 | 171 | 8.0 | 18.0 | 0.00 | 0.00 | 0.00 | 62 | 1017.5 |
| 20260901192110 | 68 | 192 | 9.0 | 18.0 | 0.00 | 0.00 | 0.00 | 61 | 1017.5 |
| 20260901192002 | 68 | 211 | 8.0 | 15.0 | 0.00 | 0.00 | 0.00 | 61 | 1017.6 |
| 20260901191600 | 67 | 161 | 9.0 | 15.0 | 0.00 | 0.00 | 0.00 | 60 | 1017.5 |
| 20260901191059 | 67 | 161 | 9.0 | 16.0 | 0.00 | 0.00 | 0.00 | 60 | 1017.6 |
| 20260901190601 | 67 | 209 | 8.0 | 18.0 | 0.00 | 0.00 | 0.00 | 61 | 1017.7 |
| 20260901190103 | 67 | 168 | 12.0 | 18.0 | 0.00 | 0.00 | 0.00 | 60 | 1017.8 |
| 20260901185558 | 67 | 360 | 6.0 | 19.0 | 0.00 | 0.00 | 0.00 | 61 | 1017.7 |
| 20260901185057 | 67 | 360 | 9.0 | 18.0 | 0.00 | 0.00 | 0.00 | 62 | 1017.8 |
| 20260901184603 | 66 | 360 | 8.0 | 14.0 | 0.00 | 0.00 | 0.00 | 63 | 1017.8 |
| 20260901184055 | 65 | 360 | 8.0 | 20.0 | 0.00 | 0.00 | 0.00 | 64 | 1017.8 |
| 20260901183554 | 65 | 360 | 12.0 | 20.0 | 0.00 | 0.00 | 0.00 | 63 | 1018.0 |
| 20260901183059 | 65 | 360 | 11.0 | 19.0 | 0.00 | 0.00 | 0.00 | 63 | 1017.9 |
| 20260901182557 | 66 | 360 | 8.0 | 15.0 | 0.00 | 0.00 | 0.00 | 64 | 1017.9 |
| 20260901182054 | 65 | 360 | 9.0 | 19.0 | 0.00 | 0.00 | 0.00 | 65 | 1017.9 |
| 20260901181553 | 65 | 360 | 9.0 | 19.0 | 0.00 | 0.00 | 0.00 | 65 | 1017.8 |
| 20260901181056 | 66 | 360 | 11.0 | 19.0 | 0.00 | 0.00 | 0.00 | 62 | 1017.9 |
| 20260901180553 | 65 | 360 | 10.0 | 18.0 | 0.00 | 0.00 | 0.00 | 65 | 1017.8 |
| 20260901180052 | 66 | 360 | 10.0 | 16.0 | 0.00 | 0.00 | 0.00 | 65 | 1017.7 |
| 20260901175552 | 65 | 174 | 10.0 | 18.0 | 0.00 | 0.00 | 0.00 | 65 | 1017.8 |
| 20260901175050 | 65 | 161 | 10.0 | 18.0 | 0.00 | 0.00 | 0.00 | 65 | 1017.7 |
| 20260901174550 | 65 | 360 | 11.0 | 16.0 | 0.00 | 0.00 | 0.00 | 66 | 1017.7 |
| 20260901174050 | 64 | 360 | 10.0 | 23.0 | 0.00 | 0.00 | 0.00 | 66 | 1017.6 |
| 20260901173551 | 65 | 360 | 12.0 | 20.0 | 0.00 | 0.00 | 0.00 | 66 | 1017.5 |
| 20260901173058 | 65 | 360 | 7.0 | 16.0 | 0.00 | 0.00 | 0.00 | 66 | 1017.6 |
| 20260901172547 | 64 | 170 | 8.0 | 16.0 | 0.00 | 0.00 | 0.00 | 69 | 1017.7 |
| 20260901172046 | 63 | 174 | 7.0 | 18.0 | 0.00 | 0.00 | 0.00 | 68 | 1017.6 |
| 20260901171548 | 63 | 128 | 11.0 | 18.0 | 0.00 | 0.00 | 0.00 | 68 | 1017.6 |
| 20260901171045 | 64 | 164 | 11.0 | 18.0 | 0.00 | 0.00 | 0.00 | 68 | 1017.5 |
| 20260901170544 | 63 | 196 | 8.0 | 19.0 | 0.00 | 0.00 | 0.00 | 69 | 1017.5 |
| 20260901170054 | 63 | 173 | 10.0 | 19.0 | 0.00 | 0.00 | 0.00 | 69 | 1017.4 |
| 20260901165543 | 63 | 212 | 8.0 | 21.0 | 0.00 | 0.00 | 0.00 | 69 | 1017.4 |
| 20260901165042 | 63 | 184 | 12.0 | 21.0 | 0.00 | 0.00 | 0.00 | 69 | 1017.4 |
| 20260901164542 | 62 | 115 | 10.0 | 20.0 | 0.00 | 0.00 | 0.00 | 70 | 1017.5 |
| 20260901164041 | 63 | 165 | 13.0 | 20.0 | 0.00 | 0.00 | 0.00 | 69 | 1017.4 |
| 20260901163539 | 63 | 175 | 9.0 | 18.0 | 0.00 | 0.00 | 0.00 | 71 | 1017.4 |
| 20260901163040 | 62 | 161 | 10.0 | 18.0 | 0.00 | 0.00 | 0.00 | 72 | 1017.3 |
| 20260901162541 | 61 | 217 | 8.0 | 13.0 | 0.00 | 0.00 | 0.00 | 73 | 1017.3 |
| 20260901162038 | 61 | 200 | 8.0 | 14.0 | 0.00 | 0.00 | 0.00 | 72 | 1017.3 |
| 20260901161538 | 62 | 188 | 8.0 | 13.0 | 0.00 | 0.00 | 0.00 | 72 | 1017.3 |
| 20260901161035 | 61 | 167 | 6.0 | 18.0 | 0.00 | 0.00 | 0.00 | 73 | 1017.2 |
| 20260901160534 | 61 | 157 | 10.0 | 18.0 | 0.00 | 0.00 | 0.00 | 73 | 1017.2 |
| 20260901160034 | 61 | 164 | 9.0 | 14.0 | 0.00 | 0.00 | 0.00 | 73 | 1017.1 |
| 20260901155532 | 61 | 153 | 6.0 | 12.0 | 0.00 | 0.00 | 0.00 | 73 | 1017.0 |
| 20260901155032 | 61 | 140 | 7.0 | 13.0 | 0.00 | 0.00 | 0.00 | 73 | 1017.0 |
| 20260901154528 | 60 | 155 | 8.0 | 13.0 | 0.00 | 0.00 | 0.00 | 74 | 1017.0 |
| 20260901154028 | 60 | 164 | 8.0 | 16.0 | 0.00 | 0.00 | 0.00 | 73 | 1016.8 |
| 20260901153526 | 60 | 140 | 9.0 | 16.0 | 0.00 | 0.00 | 0.00 | 74 | 1016.7 |
| 20260901153031 | 60 | 157 | 9.0 | 16.0 | 0.00 | 0.00 | 0.00 | 74 | 1016.6 |
| 20260901152525 | 60 | 152 | 9.0 | 16.0 | 0.00 | 0.00 | 0.00 | 74 | 1016.5 |
| 20260901152024 | 60 | 171 | 8.0 | 16.0 | 0.00 | 0.00 | 0.00 | 74 | 1016.4 |
| 20260901151524 | 60 | 156 | 7.0 | 15.0 | 0.00 | 0.00 | 0.00 | 75 | 1016.4 |
| 20260901151023 | 60 | 167 | 10.0 | 15.0 | 0.00 | 0.00 | 0.00 | 75 | 1016.4 |
| 20260901150522 | 60 | 171 | 7.0 | 11.0 | 0.00 | 0.00 | 0.00 | 75 | 1016.4 |
| 20260901150022 | 60 | 206 | 7.0 | 15.0 | 0.00 | 0.00 | 0.00 | 76 | 1016.4 |
| 20260901145521 | 59 | 167 | 5.0 | 16.0 | 0.00 | 0.00 | 0.00 | 76 | 1016.2 |
| 20260901145021 | 59 | 146 | 6.0 | 13.0 | 0.00 | 0.00 | 0.00 | 77 | 1016.1 |
| 20260901144522 | 59 | 159 | 7.0 | 13.0 | 0.00 | 0.00 | 0.00 | 77 | 1016.0 |
| 20260901144016 | 59 | 160 | 8.0 | 13.0 | 0.00 | 0.00 | 0.00 | 77 | 1016.0 |
| 20260901143516 | 59 | 143 | 8.0 | 11.0 | 0.00 | 0.00 | 0.00 | 77 | 1015.9 |
| 20260901143015 | 59 | 162 | 7.0 | 15.0 | 0.00 | 0.00 | 0.00 | 77 | 1015.8 |
| 20260901142515 | 59 | 138 | 9.0 | 19.0 | 0.00 | 0.00 | 0.00 | 78 | 1015.7 |
| 20260901142013 | 59 | 153 | 4.0 | 14.0 | 0.00 | 0.00 | 0.00 | 78 | 1015.6 |
| 20260901141512 | 59 | 162 | 9.0 | 14.0 | 0.00 | 0.00 | 0.00 | 78 | 1015.4 |
| 20260901141012 | 59 | 144 | 10.0 | 18.0 | 0.00 | 0.00 | 0.00 | 78 | 1015.5 |
| 20260901140510 | 58 | 158 | 7.0 | 18.0 | 0.00 | 0.00 | 0.00 | 78 | 1015.3 |
| 20260901140014 | 58 | 159 | 7.0 | 14.0 | 0.00 | 0.00 | 0.00 | 78 | 1015.4 |
| 20260901135510 | 58 | 157 | 7.0 | 14.0 | 0.00 | 0.00 | 0.00 | 79 | 1015.3 |
| 20260901135009 | 58 | 174 | 9.0 | 15.0 | 0.00 | 0.00 | 0.00 | 79 | 1015.3 |
| 20260901134508 | 58 | 169 | 5.0 | 15.0 | 0.00 | 0.00 | 0.00 | 80 | 1015.4 |
| 20260901134009 | 58 | 164 | 6.0 | 13.0 | 0.00 | 0.00 | 0.00 | 80 | 1015.3 |
| 20260901133507 | 58 | 153 | 7.0 | 13.0 | 0.00 | 0.00 | 0.00 | 80 | 1015.3 |
| 20260901133007 | 58 | 176 | 7.0 | 13.0 | 0.00 | 0.00 | 0.00 | 80 | 1015.2 |
| 20260901132507 | 58 | 124 | 7.0 | 14.0 | 0.00 | 0.00 | 0.00 | 80 | 1015.1 |
| 20260901132006 | 58 | 143 | 5.0 | 15.0 | 0.00 | 0.00 | 0.00 | 80 | 1015.0 |
| 20260901131506 | 58 | 146 | 8.0 | 15.0 | 0.00 | 0.00 | 0.00 | 80 | 1015.0 |
| 20260901131005 | 58 | 150 | 6.0 | 18.0 | 0.00 | 0.00 | 0.00 | 80 | 1014.9 |
| 20260901130505 | 58 | 136 | 6.0 | 14.0 | 0.00 | 0.00 | 0.00 | 80 | 1014.8 |
| 20260901130011 | 58 | 161 | 6.0 | 12.0 | 0.00 | 0.00 | 0.00 | 81 | 1014.8 |
| 20260901125504 | 58 | 132 | 5.0 | 11.0 | 0.00 | 0.00 | 0.00 | 81 | 1014.7 |
| 20260901125004 | 58 | 161 | 4.0 | 10.0 | 0.00 | 0.00 | 0.00 | 81 | 1014.9 |
| 20260901124505 | 58 | 149 | 3.0 | 12.0 | 0.00 | 0.00 | 0.00 | 81 | 1014.8 |
| 20260901124004 | 58 | 169 | 3.0 | 12.0 | 0.00 | 0.00 | 0.00 | 81 | 1014.8 |
| 20260901123503 | 58 | 147 | 4.0 | 12.0 | 0.00 | 0.00 | 0.00 | 81 | 1014.9 |
| 20260901123008 | 58 | 115 | 4.0 | 10.0 | 0.00 | 0.00 | 0.00 | 81 | 1015.1 |
| 20260901122503 | 58 | 157 | 2.0 | 10.0 | 0.00 | 0.00 | 0.00 | 81 | 1015.1 |
| 20260901122004 | 58 | 165 | 2.0 | 10.0 | 0.00 | 0.00 | 0.00 | 81 | 1015.0 |
| 20260901121502 | 58 | 150 | 2.0 | 14.0 | 0.00 | 0.00 | 0.00 | 81 | 1015.1 |
| 20260901121003 | 58 | 145 | 6.0 | 14.0 | 0.00 | 0.00 | 0.00 | 81 | 1015.0 |
| 20260901120501 | 58 | 148 | 6.0 | 10.0 | 0.00 | 0.00 | 0.00 | 81 | 1014.8 |
| 20260901120106 | 58 | 152 | 4.0 | 11.0 | 0.00 | 0.00 | 0.00 | 81 | 1014.8 |
| 20260901115601 | 58 | 166 | 7.0 | 12.0 | 0.00 | 0.00 | 0.00 | 81 | 1014.7 |
| 20260901115059 | 58 | 175 | 7.0 | 15.0 | 0.00 | 0.00 | 0.00 | 81 | 1014.9 |
| 20260901114658 | 58 | 143 | 8.0 | 15.0 | 0.00 | 0.00 | 0.00 | 81 | 1014.8 |
| 20260901114058 | 58 | 144 | 6.0 | 11.0 | 0.00 | 0.00 | 0.00 | 81 | 1014.6 |
| 20260901113559 | 58 | 144 | 6.0 | 11.0 | 0.00 | 0.00 | 0.00 | 82 | 1014.8 |
| 20260901113057 | 57 | 149 | 5.0 | 10.0 | 0.00 | 0.00 | 0.00 | 82 | 1014.8 |
| 20260901112556 | 57 | 148 | 5.0 | 10.0 | 0.00 | 0.00 | 0.00 | 82 | 1014.7 |
| 20260901112055 | 57 | 153 | 5.0 | 11.0 | 0.00 | 0.00 | 0.00 | 82 | 1014.7 |
| 20260901111556 | 57 | 167 | 7.0 | 11.0 | 0.00 | 0.00 | 0.00 | 82 | 1014.7 |
| 20260901111055 | 57 | 133 | 4.0 | 12.0 | 0.00 | 0.00 | 0.00 | 82 | 1014.7 |
| 20260901110555 | 57 | 153 | 5.0 | 12.0 | 0.00 | 0.00 | 0.00 | 82 | 1014.8 |
| 20260901110058 | 57 | 158 | 4.0 | 8.0 | 0.00 | 0.00 | 0.00 | 82 | 1014.9 |
| 20260901105553 | 57 | 163 | 4.0 | 10.0 | 0.00 | 0.00 | 0.00 | 82 | 1014.8 |
| 20260901105056 | 57 | 136 | 4.0 | 9.0 | 0.00 | 0.00 | 0.00 | 82 | 1014.7 |
| 20260901104555 | 57 | 151 | 3.0 | 8.0 | 0.00 | 0.00 | 0.00 | 82 | 1014.6 |
| 20260901104051 | 57 | 157 | 1.0 | 8.0 | 0.00 | 0.00 | 0.00 | 82 | 1014.6 |
| 20260901103550 | 57 | 161 | 3.0 | 8.0 | 0.00 | 0.00 | 0.00 | 82 | 1014.5 |
| 20260901103050 | 57 | 197 | 0.0 | 10.0 | 0.00 | 0.00 | 0.00 | 82 | 1014.5 |
| 20260901102550 | 57 | 143 | 5.0 | 11.0 | 0.00 | 0.00 | 0.00 | 82 | 1014.5 |
| 20260901102051 | 57 | 157 | 3.0 | 9.0 | 0.00 | 0.00 | 0.00 | 82 | 1014.5 |
| 20260901101548 | 57 | 154 | 4.0 | 8.0 | 0.00 | 0.00 | 0.00 | 82 | 1014.4 |
| 20260901101048 | 57 | 149 | 4.0 | 9.0 | 0.00 | 0.00 | 0.00 | 82 | 1014.4 |
| 20260901100548 | 57 | 153 | 5.0 | 9.0 | 0.00 | 0.00 | 0.00 | 82 | 1014.2 |
| 20260901100048 | 57 | 151 | 3.0 | 11.0 | 0.00 | 0.00 | 0.00 | 81 | 1014.2 |
| 20260901095546 | 57 | 149 | 5.0 | 11.0 | 0.00 | 0.00 | 0.00 | 81 | 1014.3 |
| 20260901095046 | 57 | 157 | 1.0 | 9.0 | 0.00 | 0.00 | 0.00 | 81 | 1014.3 |
| 20260901094550 | 57 | 150 | 3.0 | 10.0 | 0.00 | 0.00 | 0.00 | 81 | 1014.4 |
| 20260901094044 | 57 | 146 | 5.0 | 10.0 | 0.00 | 0.00 | 0.00 | 81 | 1014.5 |
| 20260901093545 | 57 | 110 | 3.0 | 9.0 | 0.00 | 0.00 | 0.00 | 81 | 1014.4 |
| 20260901093044 | 57 | 155 | 5.0 | 8.0 | 0.00 | 0.00 | 0.00 | 81 | 1014.5 |
| 20260901092544 | 57 | 146 | 3.0 | 9.0 | 0.00 | 0.00 | 0.00 | 81 | 1014.5 |
| 20260901092045 | 57 | 151 | 6.0 | 10.0 | 0.00 | 0.00 | 0.00 | 81 | 1014.6 |
| 20260901091543 | 57 | 151 | 3.0 | 8.0 | 0.00 | 0.00 | 0.00 | 80 | 1014.6 |
| 20260901091042 | 57 | 158 | 3.0 | 9.0 | 0.00 | 0.00 | 0.00 | 80 | 1014.6 |
| 20260901090543 | 58 | 159 | 3.0 | 14.0 | 0.00 | 0.00 | 0.00 | 80 | 1014.6 |
| 20260901090041 | 58 | 174 | 6.0 | 12.0 | 0.00 | 0.00 | 0.00 | 80 | 1014.6 |